Flag for Mexico Weather past 2 weeks in Ojinaga, Chihuahua, Mexico

Now
88 °F

Sunny.


Feels Like: 85 °F
Forecast: 62 / 98 °F
Wind: No wind

Location: Marfa Municipal Airport

Current Time: Aug 31, 2015 at 2:43:19 PM

Latest Report: Aug 31, 2015 at 2:15 PM


Visibility: 10 mi

Pressure: 30.15 "Hg (27.60 "Hg at 788m altitude)

Humidity: 22%

Dew point: 45 °F

Location of OjinagaLocation

Historic Weather in Ojinaga — Graph

°F

Ojinaga temperature yesterday

Maximum temperature yesterday: 84 °F (at 2:35 PM)
Minimum temperature yesterday: 54 °F (at 4:55 AM)
Average temperature yesterday: 69 °F

Past Weeks' High & Low Weather Summary

 TemperatureHumidityPressure
High93 °F (Aug 28, 2:55 PM)100% (Aug 21, 6:15 AM)30.34 "Hg (Aug 21, 6:15 AM)
Low52 °F (Aug 31, 4:55 AM)21% (Aug 28, 2:55 PM)29.90 "Hg (Aug 18, 5:15 PM)
Average72 °F61%30.17 "Hg
* Reported Aug 16 1:15 PM — Aug 31 1:15 PM, Ojinaga, Weather by CustomWeather, © 2015

Note: Actual official high and low records may vary slightly from our data, if they occured in-between our weather recording intervals... More about our weather records

Advertising

Ojinaga weather history for previous 24 hours

 ConditionsComfort  
Time TempWeatherWind HumidityBarometerVisibility
1:15 PM
Mon, Aug 31
86 °FSunny.3 mph25%30.17 "Hg10 mi
12:55 PM84 °FSunny.7 mph27%30.18 "Hg10 mi
12:35 PM84 °FSunny.9 mph29%30.19 "Hg10 mi
12:15 PM82 °FSunny.7 mph30%30.19 "Hg10 mi
11:55 AM82 °FSunny.7 mph30%30.20 "Hg10 mi
11:35 AM82 °FSunny.7 mph30%30.20 "Hg10 mi
11:15 AM81 °FSunny.7 mph32%30.20 "Hg10 mi
10:55 AM79 °FSunny.5 mph34%30.20 "Hg10 mi
10:35 AM79 °FSunny.6 mph39%30.20 "Hg10 mi
10:15 AM77 °FSunny.6 mph42%30.21 "Hg10 mi
9:55 AM75 °FSunny.5 mph44%30.21 "Hg10 mi
9:35 AM73 °FSunny.7 mph47%30.20 "Hg10 mi
9:15 AM73 °FSunny.3 mph47%30.20 "Hg10 mi
8:55 AM72 °FSunny.No wind50%30.19 "Hg10 mi
8:35 AM70 °FSunny.No wind53%30.19 "Hg10 mi
8:15 AM66 °FSunny.No wind60%30.18 "Hg10 mi
7:55 AM63 °FSunny.3 mph68%30.18 "Hg10 mi
7:15 AM55 °FClear.3 mph77%30.17 "Hg10 mi
6:55 AM54 °FClear.8 mph82%30.16 "Hg10 mi
6:35 AM52 °FClear.7 mph88%30.15 "Hg10 mi
6:15 AM52 °FClear.8 mph82%30.16 "Hg10 mi
5:55 AM54 °FClear.3 mph77%30.15 "Hg10 mi
5:35 AM52 °FClear.No wind82%30.15 "Hg10 mi
5:15 AM54 °FClear.7 mph77%30.15 "Hg10 mi
4:55 AM52 °FClear.6 mph82%30.15 "Hg10 mi
4:35 AM54 °FClear.3 mph77%30.14 "Hg10 mi
4:15 AM55 °FClear.7 mph77%30.14 "Hg10 mi
3:55 AM54 °FClear.12 mph77%30.15 "Hg10 mi
3:35 AM54 °FClear.7 mph77%30.15 "Hg10 mi
3:15 AM54 °FClear.3 mph77%30.15 "Hg10 mi
2:55 AM54 °FClear.5 mph77%30.15 "Hg10 mi
2:35 AM55 °FClear.No wind77%30.15 "Hg10 mi
2:15 AM55 °FClear.No wind77%30.16 "Hg10 mi
1:55 AM55 °FClear.8 mph77%30.15 "Hg10 mi
1:35 AM55 °FClear.5 mph72%30.16 "Hg10 mi
1:15 AM57 °FClear.7 mph72%30.16 "Hg10 mi
12:55 AM55 °FClear.9 mph72%30.16 "Hg10 mi
12:35 AM57 °FClear.8 mph67%30.17 "Hg10 mi
12:15 AM59 °FClear.5 mph63%30.17 "Hg10 mi
11:55 PM
Sun, Aug 30
63 °FClear.5 mph59%30.17 "Hg10 mi
11:35 PM66 °FClear.No wind52%30.17 "Hg10 mi
11:15 PM68 °FClear.No wind49%30.16 "Hg10 mi
10:55 PM66 °FClear.No wind52%30.16 "Hg10 mi
10:35 PM68 °FClear.3 mph49%30.16 "Hg10 mi
10:15 PM66 °FClear.3 mph52%30.16 "Hg10 mi
9:35 PM68 °FClear.6 mph49%30.15 "Hg10 mi
9:15 PM72 °FClear.8 mph44%30.14 "Hg10 mi
8:55 PM68 °FClear.8 mph49%30.14 "Hg10 mi
8:35 PM70 °FClear.7 mph46%30.13 "Hg10 mi
8:15 PM73 °FSunny.9 mph41%30.13 "Hg10 mi
7:55 PM75 °FSunny.8 mph39%30.12 "Hg10 mi
7:35 PM77 °FSunny.12 mph36%30.12 "Hg10 mi
7:15 PM77 °FSunny.8 mph39%30.11 "Hg10 mi
6:55 PM81 °FScattered clouds.6 mph32%30.11 "Hg10 mi
6:35 PM82 °FPartly sunny.6 mph30%30.11 "Hg10 mi
6:15 PM82 °FPartly sunny.10 mph30%30.12 "Hg10 mi
5:55 PM84 °FScattered clouds.12 mph29%30.12 "Hg10 mi
5:35 PM84 °FSunny.6 mph29%30.12 "Hg10 mi
5:15 PM84 °FSunny.3 mph29%30.12 "Hg10 mi
4:55 PM84 °FSunny.No wind29%30.13 "Hg10 mi
4:35 PM84 °FScattered clouds.7 mph29%30.13 "Hg10 mi
3:35 PM82 °FScattered clouds.6 mph28%30.15 "Hg10 mi
3:15 PM84 °FPartly sunny.No wind29%30.16 "Hg10 mi
2:55 PM82 °FScattered clouds.7 mph30%30.17 "Hg10 mi
2:35 PM84 °FScattered clouds.7 mph29%30.18 "Hg10 mi
2:15 PM82 °FPartly sunny.3 mph30%30.18 "Hg10 mi
Weather by CustomWeather, © 2015

See weather overviewHow to use our weather pages